Torna al catalogo

METEOR 2-6 DEB

AttivoPO
NORAD 45500·DEBRIS·🇷🇺 Russia

Lanciato Sep 9, 1980 da Plesetsk Cosmodrome

Loading…

Prossimi Passaggi (prossime 24 ore)

TLE

AggiornatoSource: Space-Track

Epoca: Sep 14, 2026, 13:22 UTC

1 45500U 80073U   26257.55759570  .00001956  00000-0  74953-3 0  9999
2 45500  81.2111 331.9543 0055379 150.5495 209.8827 14.29421666514115

Traccia METEOR 2-6 DEB in tempo reale con AllMySat

Download on the App Store